This demonstration page uses our WeatherBlox Daily Observations layout. Learn more.

Left ArrowRight Arrow

39.92423, -83.80882

Hourly Observations for April 17, 2022

Temp ( °F °C ) Dew Point ( °F °C ) Humidity (%) Winds ( mph kmh ) Pressure ( in mb ) Visibility ( mi km ) Precip ( " mm )
12:56 am 00:56 Clear 35 1.7 26 -3.3 70 70 N 6 9 30.19 1022 10 16 0.00 0.00
1:56 am 01:56 Clear 35 1.7 26 -3.3 70 70 N 7 11 30.21 1023 10 16 0.00 0.00
2:56 am 02:56 Clear 34 1.1 25 -3.9 70 70 N 10 17 30.22 1023 10 16 0.00 0.00
3:56 am 03:56 Clear 32 0 25 -3.9 75 75 N 9 15 30.23 1024 10 16 0.00 0.00
4:56 am 04:56 Clear 30 -1.1 25 -3.9 82 82 N 6 9 30.25 1024 10 16 0.00 0.00
5:56 am 05:56 Clear 28 -2.2 23 -5 81 81 N 5 7 30.27 1025 10 16 0.00 0.00
6:56 am 06:56 Sunny 29 -1.7 21 -6.1 72 72 N 8 13 30.28 1025 10 16 0.00 0.00
7:56 am 07:56 Sunny 31 -0.6 20 -6.7 64 64 NNE 8 13 30.30 1026 10 16 0.00 0.00
8:56 am 08:56 Sunny 33 0.6 19 -7.2 56 56 NE 16 26 30.31 1026 10 16 0.00 0.00
9:56 am 09:56 Sunny 36 2.2 17 -8.3 46 46 NE 17 28 30.31 1026 10 16 0.00 0.00
10:56 am 10:56 Sunny 38 3.3 19 -7.2 46 46 ENE 16 26 30.32 1027 10 16 0.00 0.00
11:56 am 11:56 Sunny 40 4.4 22 -5.6 49 49 NE 9 15 30.32 1027 10 16 0.00 0.00
12:56 pm 12:56 Sunny 42 5.6 24 -4.4 49 49 E 8 13 30.31 1026 10 16 0.00 0.00
1:56 pm 13:56 Sunny 45 7.2 25 -3.9 46 46 ENE 13 20 30.28 1026 10 16 0.00 0.00
2:56 pm 14:56 Sunny 47 8.3 26 -3.3 44 44 ENE 13 20 30.27 1025 10 16 0.00 0.00
3:56 pm 15:56 Sunny 47 8.3 25 -3.9 42 42 ENE 12 19 30.26 1025 10 16 0.00 0.00
4:56 pm 16:56 Sunny 49 9.4 26 -3.3 41 41 E 13 20 30.23 1024 10 16 0.00 0.00
5:56 pm 17:56 Sunny 49 9.4 26 -3.3 41 41 ENE 12 19 30.22 1023 10 16 0.00 0.00
6:56 pm 18:56 Sunny 48 8.9 25 -3.9 41 41 ENE 15 24 30.20 1023 10 16 0.00 0.00
7:56 pm 19:56 Sunny 44 6.7 25 -3.9 47 47 ENE 10 17 30.18 1022 10 16 0.00 0.00
8:56 pm 20:56 Clear 39 3.9 27 -2.8 62 62 E 8 13 30.19 1022 10 16 0.00 0.00
9:56 pm 21:56 Clear 38 3.3 28 -2.2 68 68 E 8 13 30.20 1023 10 16 0.00 0.00
10:56 pm 22:56 Clear 38 3.3 28 -2.2 68 68 ENE 9 15 30.18 1022 10 16 0.00 0.00
11:56 pm 23:56 Clear 37 2.8 27 -2.8 67 67 NE 12 19 30.14 1021 10 16 0.00 0.00

Powered by AerisWeather